Location: Unspecified
(0.0000°N, 0.0000°E)
Time: 06:36:48
(UTC+02:00)

SJ-6B - Visible Passes

Search period start: 03 September 2014 00:00
Search period end: 13 September 2014 00:00
Orbit: 521 x 597 km, 97.8° (Epoch: 02 September)

Date Brightness Start Highest point End Pass type
(mag) Time Alt. Az. Time Alt. Az. Time Alt. Az.
10 Sep 4.6 07:30:56 10° NNE 07:34:48 40° ESE 07:38:37 10° S visible
11 Sep 4.7 07:29:29 10° NNE 07:33:19 37° ESE 07:37:05 10° S visible
12 Sep 4.8 07:28:03 10° NE 07:31:49 35° ESE 07:35:32 10° SSE visible
